Temp
-4 -4 -4 -4 -4 -4 -4 -4 -4 -4 -5 -5 -5 -5 -5 -5 -4 -4 -4 -4 -4 -4 -4 -4 -4 -4 -4 -4 -4 -4 -4 -4 -4 -3 -3 -3 -3 -2 -2 -2 -2 -2 -2 -2 -2 -2 -2 -2 -2 -2 -1 -1 -1 -1 -0 0 1 1 2 2 2 2 2 1 1 1 2 2 2
-4 -4 -4 -4 -4 -4 -4 -4 -5 -5 -5 -5 -5 -5 -5 -5 -4 -4 -4 -4 -4 -4 -4 -4 -4 -4 -4 -4 -4 -4 -4 -4 -4 -4 -3 -3 -3 -2 -2 -2 -2 -2 -2 -2 -2 -2 -2 -2 -2 -2 -1 -1 -1 -1 -0 -0 0 1 1 2 2 2 2 2 2 2 2 2 2
-5 -5 -5 -5 -5 -5 -5 -5 -5 -5 -5 -6 -6 -5 -5 -5 -5 -5 -5 -5 -5 -5 -5 -4 -4 -4 -4 -4 -4 -4 -4 -4 -4 -4 -4 -3 -3 -2 -2 -2 -2 -2 -2 -2 -2 -2 -2 -2 -2 -2 -2 -1 -1 -1 -1 -0 -0 -0 0 1 1 2 2 2 2 2 2 2 3
-5 -5 -5 -5 -5 -5 -5 -5 -6 -6 -6 -6 -6 -6 -5 -5 -5 -5 -5 -5 -5 -5 -5 -5 -5 -5 -5 -5 -5 -5 -5 -4 -4 -4 -4 -3 -3 -3 -2 -2 -2 -2 -2 -2 -2 -2 -2 -2 -2 -2 -2 -1 -1 -1 -1 -1 -1 -1 -1 -0 1 1 2 3 3 3 3 3 3
-6 -6 -6 -6 -6 -6 -6 -6 -6 -7 -7 -7 -6 -6 -6 -6 -6 -6 -6 -6 -6 -5 -5 -5 -5 -5 -5 -5 -5 -5 -5 -5 -4 -4 -4 -3 -3 -3 -2 -2 -2 -2 -2 -2 -2 -2 -2 -2 -2 -2 -2 -1 -1 -1 -1 -1 -1 -1 -1 -1 -0 1 2 2 3 3 3 3 3
-6 -7 -7 -7 -7 -7 -7 -7 -7 -7 -7 -7 -7 -7 -6 -6 -6 -6 -6 -6 -6 -6 -6 -6 -6 -5 -5 -5 -5 -5 -5 -5 -5 -4 -4 -4 -3 -3 -3 -2 -2 -2 -2 -2 -2 -2 -2 -3 -2 -2 -2 -1 -1 -1 -1 -1 -1 -1 -1 -1 -0 0 1 2 3 3 3 3 3
-7 -7 -7 -7 -7 -7 -8 -8 -8 -8 -8 -8 -7 -7 -7 -7 -7 -7 -7 -7 -6 -6 -6 -6 -6 -6 -6 -6 -6 -6 -5 -5 -5 -5 -4 -4 -4 -3 -3 -3 -2 -2 -2 -2 -2 -2 -3 -3 -2 -2 -2 -1 -1 -1 -2 -2 -1 -1 -1 -1 -0 -0 0 1 1 2 3 3 4
-7 -7 -8 -8 -8 -8 -8 -9 -9 -9 -8 -8 -8 -8 -7 -7 -7 -7 -7 -7 -7 -7 -6 -6 -6 -6 -6 -6 -6 -6 -6 -5 -5 -5 -5 -4 -4 -4 -3 -3 -3 -3 -3 -3 -3 -3 -3 -3 -3 -2 -2 -2 -2 -2 -2 -2 -2 -1 -1 -1 -1 -0 -0 -0 -0 0 1 2 3
-8 -8 -8 -8 -8 -9 -9 -9 -9 -9 -9 -8 -8 -8 -8 -8 -8 -8 -8 -7 -7 -7 -7 -7 -7 -7 -6 -6 -6 -6 -6 -6 -6 -5 -5 -5 -4 -4 -3 -3 -3 -3 -3 -3 -3 -3 -3 -3 -3 -2 -2 -2 -2 -2 -2 -2 -2 -1 -1 -1 -1 -0 -0 -0 -0 -0 0 1 1
-8 -8 -8 -9 -9 -9 -9 -9 -9 -9 -9 -9 -8 -8 -8 -8 -8 -8 -8 -8 -7 -7 -7 -7 -7 -7 -7 -7 -7 -7 -7 -6 -6 -6 -5 -5 -5 -4 -4 -3 -3 -3 -3 -3 -3 -3 -3 -3 -3 -3 -3 -3 -2 -2 -2 -2 -2 -1 -1 -1 -1 -1 -1 -1 -1 -0 -0 0 1
-9 -9 -9 -9 -9 -10 -10 -9 -9 -9 -9 -9 -9 -8 -8 -8 -8 -8 -8 -8 -8 -8 -7 -7 -7 -7 -7 -7 -7 -7 -7 -7 -7 -6 -6 -6 -5 -5 -4 -4 -4 -3 -3 -3 -3 -3 -3 -3 -3 -3 -3 -3 -3 -2 -2 -2 -2 -2 -1 -1 -1 -1 -1 -1 -1 -1 -1 -0 -0
-9 -9 -9 -10 -10 -10 -10 -10 -9 -9 -9 -9 -9 -9 -9 -9 -8 -8 -8 -8 -8 -8 -8 -8 -8 -8 -8 -8 -8 -8 -8 -7 -7 -7 -6 -6 -5 -5 -5 -4 -4 -4 -4 -4 -4 -3 -3 -3 -3 -3 -3 -3 -3 -2 -2 -2 -2 -2 -1 -1 -1 -1 -1 -1 -1 -1 -1 -1 -0
-9 -9 -10 -10 -10 -10 -10 -10 -10 -9 -9 -9 -9 -9 -9 -9 -9 -9 -8 -8 -8 -8 -8 -8 -8 -8 -8 -8 -8 -8 -8 -8 -7 -7 -7 -6 -6 -5 -5 -5 -5 -5 -4 -4 -4 -4 -3 -3 -3 -3 -3 -3 -3 -2 -2 -2 -2 -2 -2 -1 -1 -1 -1 -1 -1 -1 -1 -1 -1
-10 -10 -10 -10 -10 -10 -10 -10 -10 -9 -9 -9 -9 -9 -9 -9 -9 -9 -9 -9 -8 -8 -8 -8 -8 -8 -8 -8 -8 -8 -8 -8 -8 -7 -7 -6 -6 -6 -6 -6 -5 -5 -5 -4 -4 -4 -4 -4 -3 -3 -3 -3 -3 -2 -2 -2 -2 -2 -2 -2 -2 -1 -1 -1 -1 -1 -1 -1 -1
-10 -10 -10 -10 -10 -10 -10 -10 -10 -9 -9 -9 -9 -9 -9 -9 -9 -9 -9 -9 -9 -8 -8 -8 -8 -9 -9 -9 -9 -9 -8 -8 -8 -7 -7 -7 -6 -6 -6 -6 -6 -5 -5 -5 -4 -4 -4 -4 -4 -4 -3 -3 -3 -2 -2 -3 -2 -2 -2 -2 -2 -2 -2 -2 -2 -1 -1 -1 -1
-10 -10 -10 -10 -10 -10 -10 -10 -10 -9 -9 -9 -9 -9 -9 -9 -9 -9 -9 -9 -9 -8 -9 -9 -9 -9 -9 -9 -9 -9 -8 -8 -8 -7 -7 -7 -7 -7 -6 -6 -6 -5 -5 -5 -4 -4 -4 -4 -4 -4 -3 -3 -3 -3 -3 -3 -3 -2 -2 -2 -2 -2 -2 -2 -2 -2 -1 -1 -1
-10 -10 -10 -10 -10 -10 -10 -10 -10 -10 -9 -9 -9 -9 -9 -9 -9 -9 -9 -9 -9 -9 -9 -9 -9 -9 -9 -9 -9 -9 -8 -8 -8 -8 -7 -7 -7 -7 -7 -6 -6 -6 -5 -5 -5 -5 -5 -4 -4 -4 -3 -3 -2 -3 -3 -3 -3 -3 -3 -2 -2 -2 -2 -2 -2 -2 -2 -1 -1
-10 -10 -11 -11 -11 -10 -10 -10 -10 -10 -10 -10 -9 -9 -9 -9 -9 -9 -9 -9 -9 -9 -9 -9 -9 -9 -9 -9 -9 -9 -8 -8 -8 -8 -8 -7 -7 -7 -7 -6 -6 -6 -5 -5 -5 -5 -5 -5 -4 -3 -3 -2 -2 -3 -3 -3 -3 -3 -3 -3 -3 -2 -2 -2 -2 -2 -2 -2 -1
-11 -11 -11 -11 -11 -10 -10 -10 -10 -10 -10 -10 -10 -10 -9 -9 -9 -9 -9 -9 -9 -9 -9 -9 -9 -9 -9 -9 -9 -9 -8 -8 -8 -8 -8 -7 -7 -7 -7 -6 -6 -6 -5 -5 -5 -5 -5 -5 -4 -3 -3 -2 -3 -3 -3 -3 -3 -3 -3 -3 -3 -3 -3 -2 -2 -2 -2 -2 -1
-11 -11 -11 -11 -11 -10 -10 -10 -10 -10 -10 -10 -10 -10 -10 -9 -9 -9 -9 -9 -9 -9 -9 -9 -10 -9 -9 -9 -9 -9 -8 -8 -8 -8 -8 -7 -7 -7 -7 -6 -6 -6 -6 -6 -5 -5 -5 -5 -4 -3 -2 -2 -3 -3 -3 -3 -3 -3 -3 -3 -3 -3 -3 -2 -2 -2 -2 -2 -2
-11 -11 -11 -11 -11 -10 -10 -10 -10 -10 -10 -10 -10 -10 -10 -9 -9 -9 -9 -9 -9 -9 -10 -10 -10 -10 -9 -9 -9 -9 -8 -8 -8 -8 -7 -7 -7 -7 -6 -6 -6 -6 -6 -6 -6 -6 -5 -4 -3 -2 -2 -2 -3 -3 -3 -3 -3 -3 -3 -3 -3 -3 -3 -2 -2 -2 -2 -2 -2
-11 -11 -11 -11 -11 -10 -10 -10 -10 -10 -10 -10 -10 -10 -9 -9 -9 -9 -9 -9 -9 -10 -10 -10 -10 -9 -9 -9 -9 -9 -8 -8 -8 -8 -7 -7 -7 -7 -6 -6 -6 -6 -6 -6 -6 -6 -5 -4 -3 -2 -2 -3 -3 -3 -3 -3 -3 -3 -3 -3 -3 -3 -3 -3 -2 -2 -2 -2 -2
-11 -11 -11 -11 -11 -10 -10 -10 -10 -10 -10 -10 -10 -10 -9 -9 -9 -9 -9 -10 -10 -10 -10 -10 -10 -9 -9 -9 -9 -9 -8 -8 -8 -8 -7 -7 -7 -7 -6 -6 -6 -6 -6 -6 -6 -5 -5 -4 -3 -2 -2 -3 -3 -3 -3 -3 -3 -3 -3 -3 -3 -3 -3 -3 -2 -2 -2 -2 -2
-11 -11 -11 -11 -11 -10 -10 -10 -10 -10 -10 -10 -10 -10 -9 -9 -9 -9 -10 -10 -10 -10 -10 -10 -10 -9 -9 -9 -9 -9 -8 -8 -8 -7 -7 -7 -7 -7 -6 -6 -6 -6 -6 -6 -6 -5 -4 -4 -3 -2 -2 -2 -3 -3 -3 -3 -3 -3 -3 -3 -3 -3 -3 -3 -2 -2 -2 -2 -2
-11 -11 -11 -11 -10 -10 -10 -10 -10 -10 -10 -10 -10 -9 -9 -9 -9 -10 -10 -10 -10 -10 -10 -10 -9 -9 -9 -9 -9 -9 -8 -8 -8 -7 -7 -7 -7 -6 -6 -6 -6 -6 -6 -6 -5 -5 -4 -3 -3 -2 -2 -2 -3 -3 -3 -3 -3 -3 -3 -3 -3 -3 -3 -3 -3 -2 -2 -2 -2
-11 -11 -11 -10 -10 -10 -10 -10 -10 -10 -10 -10 -10 -9 -9 -9 -9 -10 -10 -10 -10 -10 -10 -9 -9 -9 -9 -9 -9 -8 -8 -8 -8 -7 -7 -7 -7 -6 -6 -6 -6 -6 -6 -6 -5 -5 -4 -3 -2 -2 -2 -2 -2 -3 -3 -3 -3 -3 -3 -3 -3 -3 -3 -3 -3 -2 -2 -2 -2
-11 -11 -10 -10 -10 -10 -10 -10 -10 -10 -10 -10 -10 -9 -9 -9 -9 -10 -10 -10 -10 -10 -9 -9 -9 -9 -9 -9 -8 -8 -8 -8 -7 -7 -7 -7 -6 -6 -6 -6 -6 -6 -6 -6 -5 -4 -4 -3 -2 -2 -2 -2 -3 -3 -3 -2 -3 -3 -3 -3 -3 -3 -3 -3 -3 -2 -2 -2 -2
-11 -10 -10 -10 -10 -10 -10 -10 -10 -10 -10 -10 -10 -9 -9 -9 -9 -10 -10 -10 -10 -9 -9 -9 -9 -9 -9 -8 -8 -8 -8 -7 -7 -7 -7 -6 -6 -6 -6 -6 -6 -6 -6 -6 -5 -4 -4 -3 -2 -2 -2 -2 -3 -3 -3 -3 -2 -2 -3 -3 -3 -3 -3 -3 -3 -3 -2 -2 -2
-11 -10 -10 -10 -10 -10 -9 -9 -10 -10 -10 -10 -9 -9 -9 -9 -9 -9 -9 -9 -9 -9 -9 -9 -9 -9 -8 -8 -8 -8 -8 -7 -7 -7 -7 -6 -6 -6 -6 -6 -6 -6 -6 -5 -5 -4 -3 -2 -2 -2 -2 -2 -3 -3 -3 -2 -2 -2 -2 -3 -3 -3 -3 -3 -3 -3 -2 -2 -2
-11 -10 -10 -10 -10 -9 -9 -10 -10 -10 -10 -10 -9 -9 -9 -9 -9 -9 -9 -9 -9 -9 -9 -9 -9 -9 -8 -8 -8 -8 -7 -7 -7 -7 -6 -6 -6 -6 -6 -6 -6 -6 -6 -5 -5 -4 -3 -2 -2 -2 -2 -3 -3 -3 -3 -3 -2 -2 -2 -3 -3 -3 -3 -3 -3 -3 -2 -2 -2
-11 -10 -10 -10 -10 -9 -9 -10 -10 -10 -10 -9 -9 -9 -9 -9 -9 -9 -9 -9 -9 -9 -9 -9 -9 -9 -8 -8 -8 -8 -7 -7 -7 -7 -6 -6 -6 -6 -6 -6 -6 -6 -6 -5 -4 -4 -3 -2 -2 -2 -3 -3 -3 -3 -3 -3 -3 -2 -2 -3 -3 -3 -3 -3 -3 -2 -2 -2 -2
-11 -11 -10 -10 -10 -10 -10 -10 -10 -10 -10 -9 -9 -9 -9 -9 -9 -9 -9 -9 -9 -9 -9 -9 -9 -9 -8 -8 -8 -8 -7 -7 -7 -7 -6 -6 -6 -6 -5 -5 -6 -6 -6 -5 -4 -4 -3 -2 -2 -3 -3 -3 -3 -3 -3 -3 -3 -2 -3 -3 -3 -3 -3 -3 -3 -2 -2 -2 -2
-11 -11 -10 -10 -10 -10 -10 -10 -10 -10 -10 -9 -9 -9 -9 -9 -9 -9 -9 -9 -9 -9 -9 -9 -9 -9 -8 -8 -8 -8 -8 -7 -7 -6 -6 -6 -6 -6 -5 -5 -5 -6 -6 -5 -5 -4 -3 -2 -2 -2 -3 -2 -2 -3 -3 -3 -3 -3 -3 -3 -3 -3 -3 -3 -3 -2 -2 -2 -2
-11 -10 -10 -10 -10 -10 -10 -10 -10 -10 -9 -9 -9 -9 -9 -9 -9 -9 -9 -9 -9 -9 -9 -9 -9 -9 -8 -8 -8 -8 -8 -7 -7 -6 -6 -6 -6 -6 -5 -5 -6 -6 -6 -5 -5 -4 -3 -2 -2 -2 -3 -2 -2 -3 -3 -3 -3 -3 -3 -3 -3 -3 -3 -3 -3 -3 -2 -2 -2
-10 -10 -10 -10 -10 -10 -10 -10 -10 -10 -9 -9 -9 -9 -9 -9 -9 -9 -9 -9 -9 -9 -9 -9 -9 -9 -9 -8 -8 -8 -8 -7 -7 -7 -6 -6 -6 -6 -6 -5 -6 -6 -6 -5 -5 -4 -3 -2 -3 -3 -3 -2 -2 -3 -3 -3 -3 -3 -3 -3 -3 -3 -3 -3 -3 -3 -3 -2 -2
-10 -10 -10 -10 -10 -10 -10 -10 -10 -10 -9 -9 -9 -9 -9 -9 -9 -9 -9 -9 -9 -9 -9 -9 -9 -9 -9 -8 -8 -8 -8 -7 -7 -7 -7 -6 -6 -6 -6 -6 -6 -6 -6 -5 -5 -4 -3 -3 -3 -3 -3 -2 -2 -3 -3 -3 -3 -3 -3 -3 -3 -3 -3 -3 -3 -3 -3 -3 -3
-10 -10 -10 -10 -10 -10 -10 -10 -10 -10 -10 -9 -9 -9 -9 -9 -9 -9 -9 -9 -9 -9 -9 -9 -9 -9 -9 -8 -8 -8 -8 -7 -7 -7 -7 -7 -6 -6 -6 -6 -6 -6 -6 -5 -4 -4 -3 -3 -3 -3 -3 -2 -2 -2 -3 -3 -3 -3 -3 -3 -3 -3 -3 -3 -3 -3 -3 -3 -3
-10 -10 -10 -10 -10 -10 -10 -10 -10 -10 -10 -9 -9 -9 -9 -9 -9 -9 -9 -9 -9 -9 -9 -9 -9 -9 -9 -9 -8 -8 -8 -7 -7 -7 -7 -7 -6 -6 -6 -6 -6 -6 -6 -5 -4 -4 -3 -3 -4 -4 -3 -3 -3 -3 -3 -3 -3 -3 -3 -3 -3 -3 -2 -2 -2 -2 -3 -3 -3
-10 -10 -10 -10 -10 -10 -10 -10 -10 -10 -10 -10 -10 -9 -9 -9 -9 -9 -9 -9 -9 -9 -9 -9 -9 -9 -9 -9 -8 -8 -8 -7 -7 -7 -7 -7 -7 -6 -6 -6 -6 -6 -5 -5 -5 -4 -4 -3 -4 -4 -4 -3 -3 -3 -3 -3 -3 -3 -3 -3 -3 -3 -2 -2 -2 -2 -2 -3 -3
-10 -10 -10 -10 -10 -10 -10 -10 -10 -10 -10 -10 -10 -10 -10 -9 -9 -9 -9 -9 -9 -9 -9 -9 -9 -9 -9 -8 -8 -8 -8 -7 -7 -7 -7 -7 -7 -6 -6 -6 -6 -6 -5 -5 -5 -4 -4 -4 -4 -4 -4 -3 -3 -3 -3 -3 -3 -3 -3 -3 -3 -3 -2 -2 -2 -2 -3 -3 -3
-10 -10 -10 -10 -10 -10 -10 -10 -10 -10 -10 -10 -10 -10 -10 -10 -9 -9 -9 -9 -9 -9 -9 -9 -9 -9 -9 -8 -8 -8 -8 -7 -7 -7 -7 -7 -7 -6 -6 -6 -6 -6 -6 -5 -5 -4 -4 -4 -4 -4 -4 -4 -3 -3 -3 -3 -3 -3 -3 -3 -3 -3 -2 -2 -2 -2 -3 -3 -3
Height
871 870 868 866 865 863 861 860 858 857 855 853 851 849 847 845 843 841 839 837 835 833 831 829 826 825 822 821 819 816 815 812 811 809 807 805 803 801 799 797 796 794 792 790 788 786 783 781 779 777 774 771 768 766 764 762 759 757 755 753 751 750 749 748 747 747 746 745 745
871 869 868 866 865 863 861 860 858 856 855 853 851 850 847 846 843 841 839 837 835 833 831 828 826 824 822 820 818 816 814 812 810 808 806 804 802 801 799 797 795 793 791 789 787 785 783 780 778 776 773 770 768 765 763 761 759 757 754 752 750 748 747 746 745 744 743 743 742
871 869 868 866 865 863 861 860 858 856 855 853 851 850 848 846 844 841 839 837 836 833 831 829 826 824 822 820 818 816 814 812 810 808 806 803 801 800 798 796 794 792 791 789 787 785 782 780 777 775 772 770 767 765 762 760 758 756 754 751 749 747 745 743 742 742 741 740 739
871 869 868 866 865 863 861 860 858 856 855 853 851 849 848 846 844 842 840 837 835 833 831 829 826 823 821 819 817 815 813 811 809 807 805 803 801 799 797 795 794 792 790 788 786 784 782 779 777 774 772 769 767 764 762 760 758 756 753 751 748 746 743 742 741 740 739 737 737
870 869 868 866 865 863 861 860 858 856 855 853 851 849 847 846 844 842 840 837 835 833 831 828 826 823 821 819 816 814 812 810 809 806 804 802 800 798 796 795 793 791 789 787 785 783 781 778 776 773 771 768 766 764 762 760 757 755 753 750 748 745 743 741 739 737 736 735 734
870 869 867 866 865 863 861 860 858 856 855 853 851 849 847 846 844 842 840 838 835 833 830 828 826 823 821 818 816 813 811 809 807 806 804 801 800 797 796 794 792 790 788 787 785 782 780 778 775 773 770 768 765 763 761 759 757 755 752 750 747 745 742 740 738 736 734 733 732
871 869 867 866 864 863 861 859 857 856 854 852 851 849 847 846 844 842 840 837 835 832 830 827 825 823 820 818 815 813 811 808 806 805 803 801 799 797 795 793 791 789 788 786 784 782 779 777 775 772 770 767 765 762 760 758 757 754 752 749 747 745 742 740 738 736 733 732 730
871 869 867 866 864 862 861 859 857 855 854 852 850 849 847 845 843 841 839 837 835 832 830 827 825 823 820 818 815 812 810 808 806 804 802 800 798 796 794 792 790 788 787 785 783 781 778 776 774 772 769 767 765 762 760 758 756 754 751 749 747 744 742 740 737 735 733 731 729
870 869 867 865 864 862 860 858 856 855 853 852 850 848 847 845 843 841 839 836 834 832 830 827 825 822 820 817 815 812 810 807 805 803 801 799 797 795 793 791 789 787 786 784 782 780 777 775 773 771 769 767 764 762 759 757 755 753 751 748 746 744 742 740 737 735 733 731 728
870 868 866 865 863 861 860 858 856 855 853 851 850 848 846 844 842 840 838 836 834 831 829 827 824 822 819 817 814 812 810 807 805 802 800 798 796 794 792 790 788 787 785 783 781 778 776 774 772 770 768 766 763 761 759 757 754 752 750 748 746 743 741 739 737 735 732 730 728
870 868 866 865 863 861 859 857 856 854 852 851 849 847 846 844 842 840 838 836 833 831 829 826 824 821 819 816 814 811 809 807 805 802 800 797 796 794 792 790 788 786 784 782 780 777 775 773 771 769 767 764 762 760 758 756 754 752 750 747 745 743 741 738 737 734 732 730 728
870 868 866 865 863 861 859 857 855 853 852 850 848 846 845 843 841 839 837 835 833 831 828 826 824 821 819 816 814 811 809 806 804 802 800 797 795 793 791 789 787 786 783 781 779 777 774 772 770 767 765 763 761 759 757 755 753 751 749 747 745 742 740 738 736 734 732 730 728
870 868 866 864 862 861 859 857 855 853 851 850 848 846 844 842 841 838 836 834 832 830 827 825 823 821 818 816 813 811 809 806 804 802 799 797 795 793 791 789 787 785 782 780 778 776 774 771 769 767 764 762 760 758 757 754 752 750 748 746 744 742 740 737 735 733 731 729 727
870 868 866 864 862 861 859 857 855 853 851 849 848 846 844 842 840 838 836 834 831 829 826 824 822 820 818 815 813 811 808 806 804 801 799 797 795 793 791 788 786 784 782 780 777 775 773 771 768 766 763 761 759 757 756 754 752 750 748 746 743 742 739 737 735 733 731 729 727
869 867 866 864 862 860 859 857 855 853 851 849 847 846 843 841 839 837 835 833 831 828 826 824 821 819 817 815 812 810 808 806 803 801 799 796 794 792 790 788 786 783 781 779 777 774 772 770 767 765 763 761 759 757 755 753 752 749 747 745 743 741 739 737 735 732 731 728 727
869 867 866 864 862 860 859 857 855 853 851 849 847 845 843 841 839 837 835 832 830 828 825 823 821 818 816 814 811 809 807 805 803 801 798 796 794 792 789 787 785 783 781 778 776 774 771 769 767 764 762 760 758 757 755 753 751 749 747 745 743 741 739 737 735 732 730 728 726
869 867 865 863 862 860 858 857 855 853 851 849 847 845 843 841 839 836 834 832 830 827 825 822 820 817 815 813 811 809 807 804 802 800 798 796 793 791 789 787 785 782 780 778 776 773 771 768 766 764 762 760 758 756 754 752 751 749 747 745 743 741 739 737 735 732 730 728 726
868 867 865 863 861 860 858 856 855 853 851 849 846 845 843 841 838 836 834 831 829 826 824 821 819 817 815 812 810 808 806 804 802 800 798 796 793 791 788 786 784 782 780 778 776 773 770 767 765 763 761 760 758 756 754 752 751 749 747 745 743 741 739 737 735 732 730 728 726
868 866 865 863 861 859 858 856 854 852 850 848 846 844 842 840 838 836 833 831 828 826 823 821 818 816 814 812 810 808 806 804 801 799 797 795 793 790 788 786 783 781 779 777 775 772 769 767 764 762 761 759 757 756 754 752 750 748 747 745 743 741 739 737 735 732 731 729 727
868 866 865 863 861 859 857 856 854 852 850 848 846 844 842 840 837 835 833 830 828 825 823 820 818 816 813 811 809 807 805 803 801 799 796 794 792 790 787 785 783 781 779 777 774 772 769 766 764 762 761 759 757 755 753 752 750 748 746 744 742 741 739 737 735 733 731 729 727
868 866 864 862 861 859 857 855 853 851 850 847 846 843 841 839 837 835 832 830 827 825 822 820 817 815 813 811 809 807 805 803 801 798 796 794 792 789 787 785 782 780 778 776 773 771 767 765 763 762 760 759 757 755 753 752 750 748 746 745 743 741 739 737 735 733 731 729 727
868 866 864 862 861 859 857 855 853 851 849 847 845 843 841 839 836 834 832 829 826 824 822 819 817 815 813 811 809 806 804 802 800 798 796 794 791 789 787 784 782 779 777 774 772 769 767 764 762 761 760 758 756 755 753 752 750 748 746 745 743 741 739 737 735 733 731 729 727
867 866 864 862 860 858 856 854 852 851 849 846 845 842 840 838 836 834 831 829 826 824 821 819 817 815 812 811 808 806 804 801 800 797 796 793 791 788 786 783 781 778 776 773 771 768 766 763 762 760 759 757 756 754 753 751 750 748 747 745 743 741 739 737 736 734 732 730 727
867 865 863 861 860 858 856 854 852 850 848 846 844 842 840 838 836 833 831 828 826 823 821 819 816 814 812 810 808 806 804 801 799 797 795 793 791 788 785 783 780 778 775 773 771 768 766 763 761 759 757 756 755 754 752 751 750 748 747 745 743 741 739 737 736 734 732 730 728
866 865 863 861 859 857 855 853 851 850 847 846 844 842 840 837 835 833 830 827 825 823 821 819 816 814 812 810 808 806 804 801 799 796 794 792 790 787 785 782 780 777 775 772 770 768 765 762 759 757 756 755 754 753 752 751 750 748 747 745 743 742 740 738 737 735 733 731 729
866 864 862 861 859 856 855 853 851 849 847 845 843 841 839 837 835 832 830 827 825 823 821 819 816 814 812 810 807 805 803 801 799 796 794 792 790 787 785 782 780 777 775 772 770 767 765 761 757 755 754 754 754 753 752 751 750 748 747 746 744 742 740 739 737 735 733 732 730
866 864 862 860 858 856 854 852 851 848 846 845 843 841 839 837 834 832 830 827 825 823 821 819 816 814 812 810 807 805 803 801 799 796 794 792 790 787 785 782 779 777 774 772 769 767 764 761 757 755 754 754 754 753 752 751 750 748 747 746 744 742 741 739 737 736 734 732 731
865 863 861 859 857 856 854 852 850 848 846 844 842 840 838 836 834 832 829 827 825 823 821 819 816 815 812 810 808 806 803 801 799 797 794 792 790 787 785 782 779 777 774 772 769 767 764 761 758 756 755 755 754 753 752 751 750 748 747 746 745 743 742 740 738 737 735 733 732
865 863 861 859 857 855 853 851 849 847 846 844 842 840 838 836 834 831 829 826 825 823 821 819 817 815 813 811 808 806 804 801 799 797 794 792 790 787 785 782 779 777 774 772 769 767 764 762 759 757 756 755 754 753 752 751 750 749 748 747 745 744 742 741 739 737 736 735 733
865 862 861 858 856 855 853 851 849 847 845 843 841 840 838 836 833 831 829 826 825 823 821 820 817 815 813 811 809 806 804 801 799 797 794 792 790 787 785 782 780 777 774 772 769 766 763 762 759 757 756 755 754 753 752 751 750 749 748 747 746 744 743 741 740 739 737 736 734
864 862 860 858 856 854 852 850 848 847 845 843 841 839 837 836 833 831 829 827 825 823 821 820 817 816 813 811 809 807 804 802 799 797 794 792 790 787 785 782 780 777 774 772 769 766 763 761 759 757 755 754 753 752 752 752 751 750 749 748 747 745 743 742 741 740 738 737 736
863 861 860 857 856 854 852 850 848 846 844 842 841 839 837 835 833 831 829 827 825 823 821 819 817 815 813 811 809 807 804 802 800 797 795 792 790 788 785 783 780 777 775 772 769 766 762 759 757 756 754 753 753 752 752 752 751 751 750 748 747 745 744 743 742 741 739 738 737
863 861 859 857 855 853 851 849 847 846 844 842 840 838 837 835 833 831 829 827 825 823 821 819 817 815 813 811 809 807 805 802 800 797 795 793 791 788 786 783 781 778 775 772 769 765 761 757 755 754 754 753 752 752 752 752 752 751 750 749 747 746 745 744 743 742 741 740 738
862 860 858 856 855 853 851 849 847 845 843 841 840 838 836 835 833 831 829 826 825 823 821 819 817 816 814 812 810 807 805 803 800 798 796 793 791 788 786 784 781 778 776 773 769 765 761 757 755 754 754 753 753 752 752 752 752 752 751 750 748 747 746 745 744 743 742 741 740
861 860 858 856 854 852 850 848 846 845 843 841 839 837 836 834 832 831 829 827 825 823 821 819 817 816 813 811 810 808 806 803 801 798 796 794 791 789 786 784 782 779 776 773 770 766 762 758 756 755 755 754 753 753 753 753 753 752 752 751 749 747 746 745 744 744 743 742 741
861 859 857 855 853 851 850 848 846 844 842 841 839 837 835 834 832 831 829 826 825 822 821 819 817 815 813 811 810 808 806 804 801 799 796 794 792 789 787 784 782 779 776 773 771 767 764 760 758 757 757 756 755 754 754 754 754 753 753 752 750 749 747 746 746 745 744 743 742
861 859 857 855 853 851 849 848 846 844 842 840 838 837 835 833 832 830 828 826 824 822 820 819 817 815 813 811 810 808 806 804 802 800 797 795 792 790 787 785 782 780 777 774 772 769 766 762 760 759 758 757 756 756 755 755 754 754 754 753 752 750 749 748 747 746 745 745 744
860 858 856 855 853 851 849 847 846 844 842 840 838 837 835 833 832 830 828 826 825 822 820 818 817 815 813 811 810 808 806 804 802 800 798 796 793 791 788 786 783 781 778 776 773 771 767 764 762 760 759 758 757 757 756 756 756 755 755 754 753 752 751 750 749 748 747 746 745
860 858 856 854 852 851 849 847 845 844 842 840 838 836 835 833 832 830 828 827 825 823 821 819 817 815 813 811 810 808 806 804 803 801 798 796 794 792 790 787 784 782 779 777 774 772 769 766 763 762 760 760 759 758 757 757 757 756 756 755 754 753 752 751 750 749 749 748 747
859 857 856 854 852 850 848 846 845 843 842 840 838 836 835 833 831 830 828 827 825 823 821 819 817 815 813 811 810 808 806 804 802 801 799 797 795 793 791 788 786 783 781 778 776 773 771 767 765 763 762 761 760 759 759 758 758 757 757 756 755 754 753 752 752 751 750 749 749
859 857 855 853 852 850 848 846 845 843 841 840 838 836 835 833 831 830 828 826 825 823 821 819 817 815 813 812 810 808 806 804 802 801 799 797 795 793 791 789 787 785 782 780 777 775 773 770 767 764 763 762 762 761 760 759 759 758 758 757 757 756 755 754 753 752 752 751 751
Wind_Speed
20 20 19 19 19 19 19 19 19 19 19 20 20 21 21 21 21 21 21 21 22 22 23 23 23 24 25 26 27 28 28 28 28 29 29 29 28 28 28 28 27 27 27 27 28 27 27 27 27 27 27 26 26 26 26 26 26 26 25 24 24 24 24 24 24 24 24 25 24
20 20 20 19 19 20 20 20 19 19 20 20 20 20 20 20 21 21 21 22 22 23 23 23 24 25 26 27 27 27 27 28 29 29 29 29 28 28 27 27 27 26 27 27 27 27 27 27 28 27 27 26 25 26 26 26 26 26 26 26 24 23 23 24 24 24 24 24 24
21 21 21 20 20 21 21 20 20 21 22 21 20 20 20 20 20 21 22 23 23 24 24 24 25 26 26 27 27 27 27 28 29 29 29 28 28 27 27 27 27 26 26 26 26 26 27 27 27 27 26 25 25 25 25 25 26 27 27 27 25 23 22 22 22 23 23 23 23
21 21 21 21 21 22 21 21 21 22 22 21 21 20 20 20 20 21 22 24 24 24 24 25 26 26 26 27 27 28 28 28 28 28 28 28 27 27 27 27 27 26 26 26 26 27 27 28 27 25 25 25 25 24 24 25 26 27 27 26 25 23 22 21 21 22 21 21 21
21 21 21 21 22 22 21 21 22 22 22 21 20 20 20 20 21 22 23 24 24 25 25 26 26 26 27 27 28 29 29 28 27 27 27 28 27 27 27 27 27 26 26 26 26 27 28 28 26 24 24 24 23 23 24 25 26 26 26 26 25 23 22 22 21 21 22 22 22
22 22 21 21 22 22 21 21 22 22 21 21 20 20 20 21 22 23 24 25 25 25 26 26 26 26 27 28 29 29 29 28 27 27 27 27 28 27 27 27 27 26 25 26 26 27 28 27 25 23 23 23 23 24 25 26 26 26 25 25 24 23 22 21 20 20 20 22 23
21 21 22 22 22 22 22 22 22 22 21 20 20 20 21 22 23 24 25 25 25 25 25 26 26 27 28 29 29 29 29 28 27 27 27 27 28 28 28 27 27 27 26 26 27 27 27 27 25 23 22 22 22 23 25 26 26 25 25 24 23 22 21 21 20 20 19 19 20
21 21 21 22 22 22 22 23 22 22 21 20 20 21 22 23 24 25 25 24 24 25 25 26 27 28 29 29 29 29 29 28 28 28 28 28 28 29 28 27 27 27 27 27 27 27 27 26 24 23 22 22 22 23 25 26 26 26 25 24 22 21 20 20 21 21 20 19 19
21 21 21 21 22 22 22 23 22 21 20 20 20 21 22 23 24 24 24 24 24 25 26 26 27 28 29 29 29 28 28 28 28 28 28 29 29 29 29 27 28 28 28 27 27 28 27 25 23 22 22 22 23 24 26 26 26 25 25 23 22 21 21 20 20 20 20 20 19
22 22 22 22 22 22 23 22 22 21 20 20 20 21 22 23 23 24 24 24 25 26 26 27 28 28 29 29 28 28 28 28 28 28 29 29 30 30 29 28 28 28 28 28 28 28 27 25 23 23 24 24 25 25 25 25 25 25 24 23 22 22 21 20 20 20 19 19 18
22 22 22 22 22 23 23 22 21 20 20 20 21 22 23 23 23 24 24 25 26 26 27 27 27 28 28 27 27 27 27 28 28 29 29 30 30 30 30 29 28 28 29 29 28 27 26 25 24 25 26 26 25 24 24 24 25 25 24 23 22 22 21 20 20 19 18 18 18
22 22 22 22 22 23 22 22 21 20 20 20 22 23 23 23 24 24 25 25 26 27 27 27 27 27 27 27 27 27 27 28 29 29 29 29 30 30 30 29 29 29 29 29 28 27 26 26 26 27 27 26 25 23 23 24 24 24 24 23 23 22 21 20 20 19 18 18 18
21 21 22 22 22 23 22 22 21 21 20 21 22 23 24 24 24 25 25 26 27 27 27 27 27 26 26 26 27 27 28 28 29 29 29 29 29 29 29 29 29 30 30 29 29 28 28 28 28 28 27 26 24 23 23 24 24 23 23 23 22 22 21 21 20 20 19 18 18
21 21 22 22 23 22 22 22 21 21 21 22 23 24 24 24 24 25 25 26 27 27 27 27 27 26 26 26 27 27 28 28 28 28 28 28 28 28 29 29 29 30 30 29 30 30 30 29 28 27 27 26 25 24 23 23 23 23 22 22 22 22 21 21 20 20 19 19 18
21 21 22 22 22 22 22 22 22 21 22 23 24 24 25 24 24 25 26 26 27 27 27 27 27 27 26 26 27 27 27 27 27 27 28 28 28 28 29 29 30 30 30 30 31 31 31 30 29 28 26 25 24 23 23 23 22 22 22 22 22 22 21 21 21 20 19 19 19
21 22 22 22 23 23 23 23 22 22 23 24 24 25 25 24 25 25 26 27 28 27 27 28 28 28 27 27 26 26 26 26 26 27 27 28 28 29 29 29 29 30 30 31 31 31 32 31 30 28 26 24 23 22 22 22 22 21 21 21 21 21 21 21 21 20 19 19 19
22 22 22 23 23 23 23 23 23 23 24 24 25 25 25 25 25 26 27 27 28 28 28 29 28 27 27 27 26 26 26 26 26 26 27 27 28 29 29 29 29 30 30 30 31 31 32 32 31 27 24 22 21 20 21 21 21 20 20 20 20 20 20 20 20 20 19 19 19
22 22 23 23 23 24 24 24 24 24 25 25 25 25 25 25 26 27 27 28 28 28 29 29 28 27 27 27 26 26 26 26 26 26 26 27 28 28 29 29 29 30 30 30 31 32 33 33 30 26 22 20 19 19 19 19 20 19 19 20 20 20 20 21 21 20 19 19 19
22 23 23 24 24 24 24 25 25 25 25 25 25 25 25 26 26 27 28 28 28 28 28 29 28 27 27 27 26 26 26 26 26 26 27 27 27 28 28 29 29 30 30 30 30 31 33 33 28 23 19 18 17 18 18 18 19 19 19 19 19 20 21 21 22 21 20 19 19
23 23 23 24 24 24 25 25 25 25 25 25 25 25 26 26 27 28 28 29 28 28 28 28 28 27 27 27 27 26 26 26 26 26 27 27 27 28 28 29 29 30 29 29 29 31 33 32 26 20 17 16 16 16 17 17 18 18 18 18 19 20 20 21 22 22 21 20 20
23 23 24 24 24 24 25 25 25 25 25 25 25 25 26 26 27 28 28 28 28 28 28 28 28 27 27 27 27 27 26 26 26 26 26 27 27 27 28 29 29 29 29 29 29 31 33 31 24 18 14 14 14 15 16 16 17 17 17 17 18 18 19 20 21 22 22 22 21
23 23 24 24 24 24 25 25 25 25 25 25 25 25 26 26 27 28 28 28 28 28 28 28 27 27 26 26 26 26 26 26 26 26 26 26 27 27 28 29 29 29 29 28 29 31 33 32 25 18 13 13 13 14 15 15 16 16 17 17 17 18 19 19 21 22 23 23 23
23 23 23 23 24 24 25 25 25 25 25 25 25 25 26 27 27 28 28 28 28 28 28 27 27 26 26 26 26 26 26 26 26 26 26 26 27 28 29 29 29 29 28 28 29 31 33 34 30 21 14 11 13 14 14 15 15 16 16 17 17 18 18 19 21 22 23 24 25
23 23 23 23 24 24 25 25 25 25 25 25 25 25 26 27 27 28 28 28 28 28 27 27 26 26 26 25 25 25 26 26 27 27 27 27 27 28 29 29 29 28 27 28 29 31 34 35 35 26 16 10 11 12 13 14 15 16 16 17 17 18 18 19 20 21 23 24 25
23 23 23 23 24 24 25 24 25 25 25 25 25 25 26 27 27 28 28 28 28 28 27 26 26 26 26 25 25 25 26 26 27 27 27 27 28 28 28 28 28 27 27 27 30 32 35 37 37 28 15 7 8 10 11 12 14 15 16 16 17 17 18 18 19 20 22 23 24
23 23 23 24 24 24 24 24 24 24 25 25 25 25 26 27 27 27 27 27 27 27 26 26 26 25 25 24 24 25 26 26 26 26 27 28 28 28 28 28 28 28 28 29 31 33 36 39 36 23 10 5 7 9 10 11 13 14 15 15 16 17 17 17 18 19 21 22 23
23 23 23 24 24 24 24 24 24 24 24 24 25 25 26 27 27 27 27 27 26 25 25 24 24 24 24 23 24 25 26 26 26 26 26 27 28 28 28 27 27 28 29 30 32 33 36 39 31 17 7 6 7 9 10 11 12 13 14 14 16 16 16 16 17 17 19 21 22
23 23 24 24 24 24 24 24 24 24 24 24 24 25 25 26 27 27 27 26 26 24 23 23 23 23 23 23 24 25 26 26 26 26 26 27 27 27 27 27 28 28 29 30 32 33 35 37 25 14 8 8 9 9 9 11 12 13 13 14 15 16 16 15 16 17 18 20 20
23 23 24 24 24 24 24 24 24 24 24 24 24 24 25 26 26 26 26 26 25 24 23 23 23 23 23 24 25 25 26 26 25 25 26 26 27 27 27 27 28 29 30 31 31 33 35 35 20 11 9 10 9 9 9 10 11 12 13 14 15 16 16 15 16 17 18 19 20
23 23 24 24 24 24 24 24 24 24 23 23 23 24 24 25 26 26 26 26 25 23 22 22 23 23 24 24 24 25 25 25 25 26 26 26 27 27 27 27 28 29 30 31 32 33 35 35 19 11 9 10 9 9 9 10 11 12 13 14 15 15 15 14 15 17 18 18 19
23 23 23 23 24 24 24 24 24 24 23 23 23 23 24 25 25 26 26 25 24 23 23 23 23 24 24 24 24 25 25 25 25 26 26 27 27 27 27 27 28 28 30 31 32 34 36 35 20 10 8 9 9 10 10 10 10 11 13 14 15 15 15 14 15 17 18 18 19
23 23 23 23 23 24 24 24 24 24 23 23 23 23 23 24 25 25 25 25 24 24 23 23 23 23 24 24 24 25 25 25 26 26 27 27 27 27 27 27 27 28 30 32 34 37 39 35 20 9 7 9 10 10 10 9 10 11 13 14 15 15 14 13 14 16 18 17 18
23 23 23 23 23 24 24 24 24 24 23 23 23 23 23 24 24 25 25 24 24 23 23 22 22 23 23 23 24 24 25 25 26 26 27 27 27 27 27 27 26 27 30 33 35 39 41 35 19 10 7 9 10 10 10 9 10 11 13 15 16 15 14 13 14 16 18 18 18
24 23 23 23 24 24 24 24 24 24 24 23 23 23 23 24 24 24 24 24 24 23 22 22 22 22 22 22 23 24 24 25 26 27 27 27 27 27 27 27 27 28 31 33 36 40 40 31 17 11 10 11 11 11 10 10 10 12 14 16 17 17 15 13 14 16 18 19 19
23 23 24 24 24 24 24 24 24 24 24 23 23 23 23 23 23 24 24 24 24 23 22 22 21 21 22 22 22 23 24 25 26 27 27 27 27 28 28 28 28 29 32 33 36 40 38 28 17 12 12 11 11 10 10 10 10 12 13 16 18 19 18 16 16 17 19 20 20
23 24 24 24 24 24 24 24 25 24 24 24 23 23 23 23 23 23 24 24 24 23 23 22 22 22 22 22 22 23 23 24 25 26 27 27 27 27 28 28 28 30 32 33 36 39 36 27 17 12 12 11 10 9 9 10 10 11 12 14 17 19 20 19 20 21 22 22 22
24 24 24 25 25 25 25 25 25 25 24 24 23 23 23 23 23 23 23 23 23 23 23 22 22 22 22 22 22 22 22 23 24 25 26 26 26 27 28 28 28 29 31 33 35 38 37 28 17 13 12 11 10 9 9 10 10 10 11 12 14 16 18 19 21 24 25 25 24
25 25 25 25 25 25 25 25 25 24 24 24 23 23 23 23 22 22 23 23 23 23 23 22 22 22 22 23 22 22 22 22 23 24 25 25 25 26 27 27 28 29 30 32 34 37 38 32 18 12 12 12 11 10 10 10 10 10 11 11 12 13 15 16 19 21 23 25 25
25 25 24 24 24 25 25 25 24 24 24 23 23 23 23 23 22 22 22 22 22 23 22 22 22 22 22 22 22 22 21 21 22 23 24 24 24 25 25 26 27 28 29 31 33 36 38 36 21 12 11 12 11 11 10 10 11 11 11 11 11 12 13 14 16 18 21 23 25
25 24 24 24 24 24 24 24 24 24 23 23 23 23 23 22 22 22 22 22 22 22 22 21 21 22 22 22 21 21 20 20 22 23 23 23 23 23 24 25 26 27 29 30 32 35 37 37 26 15 10 11 11 11 11 11 11 12 12 12 12 12 13 14 15 16 19 21 24
24 24 24 24 24 24 24 24 24 23 22 22 22 23 22 22 22 22 22 22 22 22 21 21 21 22 22 21 21 20 20 20 21 22 23 22 21 21 22 24 25 26 28 29 31 33 35 37 32 20 12 11 11 12 12 12 12 13 13 13 12 12 12 13 14 15 17 19 21
Wind_Direction
338 337 336 335 333 332 330 329 328 329 329 328 326 325 324 323 322 322 322 323 322 321 320 318 318 318 317 317 317 317 317 317 317 317 317 317 315 316 318 321 321 320 320 320 320 320 320 320 320 319 318 315 315 315 314 313 312 309 304 296 287 278 273 270 267 265 263 261 261
336 336 335 333 333 332 331 329 329 329 329 327 325 324 323 323 322 322 323 323 322 321 319 318 318 318 318 317 317 317 317 317 317 317 317 316 315 316 319 320 320 320 320 321 321 321 321 320 320 319 317 316 316 315 316 317 318 318 315 308 298 287 278 272 269 266 264 263 260
336 335 334 333 333 333 332 330 329 329 328 326 324 324 323 323 323 323 323 323 322 321 320 319 318 318 318 317 317 317 317 317 316 316 316 316 315 316 318 320 321 321 321 322 322 322 321 321 319 318 317 316 316 316 316 318 320 321 320 316 310 299 287 276 271 268 266 263 259
335 335 334 334 334 333 332 331 329 329 328 326 325 324 324 324 325 325 324 323 323 322 321 321 320 319 318 318 318 317 317 316 316 316 315 315 315 315 317 320 320 321 322 322 322 322 322 321 319 317 316 316 317 316 317 318 320 320 319 318 314 308 297 285 276 270 265 262 258
335 335 334 334 333 333 332 331 330 329 328 326 325 325 325 326 326 326 325 324 323 323 322 321 320 319 319 319 318 318 317 316 316 316 316 316 315 315 316 319 320 321 322 322 323 323 323 323 320 316 315 316 316 316 317 318 319 319 318 317 316 313 308 299 287 275 266 261 259
335 335 334 334 334 333 333 332 331 330 328 326 325 325 326 326 326 326 325 324 323 323 322 322 322 321 321 320 319 319 318 317 317 317 317 316 316 316 316 317 320 321 322 323 323 323 323 323 320 316 314 315 315 315 316 318 319 320 319 318 317 317 316 314 307 295 280 268 261
334 334 335 335 335 334 334 333 332 330 328 327 326 326 326 326 326 326 325 324 323 324 324 324 323 323 322 321 320 319 318 317 317 317 317 317 317 317 316 317 320 322 323 323 323 323 323 322 319 316 315 315 316 316 318 319 319 320 320 319 318 318 319 321 322 319 310 296 281
335 335 335 335 336 335 335 334 332 331 330 328 328 327 327 327 326 326 325 325 325 325 325 324 323 323 322 322 321 320 319 318 317 317 318 318 317 317 317 318 321 323 324 325 324 323 322 321 319 316 315 315 316 316 318 319 320 321 321 321 321 320 321 322 324 326 325 322 316
336 336 336 336 336 336 335 334 333 332 330 328 328 328 328 327 327 327 326 326 325 324 324 323 323 323 322 322 321 320 319 319 317 317 317 317 317 318 318 319 322 324 326 326 324 323 321 320 317 316 314 314 315 315 317 319 320 321 321 322 324 324 323 323 325 326 326 326 325
337 337 337 337 337 336 335 334 333 332 331 329 329 329 329 329 328 328 327 326 325 324 324 324 323 323 323 322 322 321 320 319 318 317 317 317 317 318 319 320 323 325 326 326 324 323 321 320 317 315 314 313 314 314 316 318 320 320 321 322 324 326 326 326 328 328 328 326 324
338 338 338 337 336 335 335 335 334 333 331 330 330 331 330 330 329 328 327 326 326 325 324 324 324 324 323 322 322 321 320 319 318 317 316 316 317 318 320 322 324 325 326 325 324 323 321 320 317 315 314 314 314 315 316 319 319 320 320 320 323 325 326 328 331 331 330 328 326
337 337 337 336 335 335 335 335 333 332 331 331 331 331 331 330 329 328 327 327 326 326 325 325 324 324 323 322 321 320 320 319 318 317 316 316 317 319 321 323 325 325 325 324 323 323 321 320 318 316 315 314 314 315 317 319 319 320 320 320 322 325 327 329 332 333 332 329 327
337 337 336 336 336 336 335 334 333 332 331 331 332 331 331 330 329 329 328 328 327 326 326 325 325 324 322 321 320 320 320 319 318 318 317 317 318 320 322 324 324 324 324 323 323 323 323 321 320 318 316 314 314 315 317 319 320 320 320 321 323 325 326 329 331 333 333 332 329
337 337 336 336 336 336 335 335 333 332 331 331 331 331 331 330 330 329 329 328 328 327 326 326 325 324 322 321 320 320 319 319 319 318 318 318 320 322 323 324 324 324 323 323 324 324 324 323 321 319 316 314 314 315 317 319 320 320 321 322 324 325 327 329 331 333 334 334 332
337 337 337 336 336 336 336 335 334 332 331 331 331 331 331 330 330 330 329 328 328 327 327 326 325 324 322 321 321 320 320 320 320 320 320 321 322 323 324 323 323 323 324 324 325 326 325 324 322 320 317 315 314 315 317 319 320 321 322 324 325 326 328 329 331 334 335 336 335
337 337 337 337 336 336 336 335 334 332 331 331 331 331 330 330 329 329 329 329 329 328 327 326 325 324 323 323 322 322 322 322 322 322 323 323 324 324 324 323 323 323 325 325 326 326 326 325 324 321 318 316 315 316 318 319 320 322 323 325 327 328 329 331 333 334 336 337 338
337 337 337 337 336 336 335 335 334 332 331 331 330 331 331 330 329 329 329 329 329 328 327 326 326 325 324 324 324 324 324 324 324 324 324 324 324 324 323 323 323 324 325 326 326 326 326 326 324 321 318 317 317 318 319 321 322 324 325 327 329 331 332 334 335 336 337 339 340
337 337 337 336 336 335 335 334 333 332 331 331 331 331 331 330 330 330 330 330 329 328 327 327 327 326 325 325 325 325 325 325 325 324 324 324 324 323 323 323 323 325 326 327 327 326 326 326 323 320 317 319 320 321 322 324 326 327 328 331 333 335 337 339 340 340 340 341 343
337 336 336 336 335 334 334 333 333 332 332 331 331 331 331 331 331 331 330 330 330 329 328 328 328 327 327 326 326 326 327 326 326 325 325 325 325 325 324 324 325 326 327 327 327 326 326 325 322 319 318 321 323 325 327 329 331 332 334 336 338 341 343 345 347 347 346 346 348
336 336 335 334 334 334 333 333 332 332 331 331 331 331 331 332 332 332 332 331 330 330 330 329 329 328 328 328 327 328 328 328 327 327 326 327 327 327 326 326 326 327 327 327 326 326 326 325 321 318 320 323 327 330 332 335 336 337 339 341 343 345 348 350 352 353 353 354 354
336 335 334 333 333 333 332 332 332 332 331 331 331 332 332 333 333 333 333 332 331 331 331 331 331 330 329 329 329 329 329 329 329 328 328 328 329 328 328 328 328 328 328 327 326 326 326 325 322 318 319 325 331 335 338 339 340 341 343 345 347 349 352 355 356 358 359 0 1
335 334 333 332 332 332 331 332 332 332 332 332 332 332 333 333 334 334 333 333 333 333 333 333 333 332 331 330 330 330 330 330 330 330 330 330 330 330 330 330 329 329 328 328 326 326 326 327 326 321 317 325 337 343 344 343 343 344 346 348 350 353 356 358 0 2 4 6 7
334 333 332 332 332 331 331 332 332 333 333 333 333 333 334 334 335 335 334 334 334 334 335 334 334 333 332 332 331 331 331 331 332 332 332 333 333 332 332 331 331 330 329 328 327 326 327 328 329 326 320 326 343 350 351 348 347 347 348 350 352 355 357 359 2 4 7 9 11
333 332 332 332 332 332 332 332 333 333 333 333 333 334 334 335 335 335 335 334 335 335 336 335 334 334 333 333 333 333 333 333 333 333 334 335 335 334 333 333 332 331 330 328 327 327 327 327 328 326 323 326 344 351 351 349 348 349 349 351 352 354 356 358 360 3 7 10 13
332 332 332 332 332 332 332 333 333 334 334 333 333 334 335 335 336 336 335 334 335 336 336 336 336 335 335 334 333 334 335 335 335 335 336 336 337 336 334 333 332 331 329 327 327 327 328 327 327 327 325 330 344 348 348 347 347 349 350 351 352 354 355 355 356 360 5 9 13
332 332 333 332 332 332 333 332 333 333 333 333 334 334 335 336 336 335 334 334 334 335 336 336 336 337 336 334 334 334 335 336 336 337 337 338 338 337 336 334 333 331 329 328 328 328 329 329 331 334 341 354 352 349 346 344 346 348 350 351 353 355 355 353 353 356 2 7 12
332 333 333 332 332 333 333 333 333 333 333 334 334 335 335 336 336 335 334 333 333 334 335 336 336 336 336 335 335 335 336 336 337 338 338 339 338 337 336 334 333 330 329 328 329 330 330 333 340 353 23 15 0 352 347 344 344 348 351 353 355 356 356 354 353 355 1 7 12
332 332 333 333 333 333 333 333 333 333 333 334 333 334 335 336 336 335 334 333 333 334 336 337 337 336 336 336 336 336 337 338 338 339 339 339 338 338 337 335 333 331 330 330 331 331 333 339 351 13 32 11 0 353 348 343 344 348 353 356 356 358 359 357 355 359 6 12 13
331 332 332 332 333 333 334 334 334 334 333 333 333 333 334 336 336 335 335 334 334 335 336 337 337 336 336 337 337 337 338 339 339 339 339 339 339 338 337 336 334 333 332 333 333 332 335 344 356 13 14 4 359 354 348 345 347 352 357 359 358 0 2 1 1 7 15 18 17
330 331 331 331 332 333 334 334 334 333 333 332 332 333 334 336 336 336 335 335 334 334 335 335 335 335 336 337 338 338 339 339 339 339 339 339 339 339 339 338 336 335 335 335 335 333 336 345 353 1 359 1 1 359 354 349 351 356 0 1 1 4 7 6 7 15 21 23 22
329 329 329 330 331 332 333 333 333 333 332 332 332 333 334 336 337 337 336 335 333 333 334 334 335 334 335 337 339 339 339 338 338 338 339 339 340 340 340 340 338 337 337 337 337 335 335 341 348 355 354 358 1 5 4 358 358 2 5 4 5 10 14 14 19 24 27 27 27
326 327 328 328 329 330 331 332 332 332 331 331 331 333 335 336 337 337 336 335 333 333 333 334 334 334 335 336 338 339 339 338 338 338 339 339 340 341 341 341 340 339 338 339 338 335 334 338 348 1 1 358 4 11 13 7 7 10 11 9 11 18 24 25 28 32 33 31 31
326 325 326 327 327 328 330 331 331 331 330 330 331 332 334 336 337 337 337 336 335 334 333 333 333 333 333 335 336 337 338 338 337 338 338 339 340 341 342 343 341 340 339 340 339 337 336 341 357 20 21 8 12 20 22 18 19 20 18 16 19 25 33 37 39 39 38 35 34
325 324 325 325 326 327 328 329 330 330 330 329 330 331 333 335 336 337 337 336 335 333 332 332 332 331 332 333 335 335 336 337 337 337 338 338 339 341 342 343 342 341 340 341 341 341 344 350 9 30 28 17 20 26 29 27 28 27 24 21 25 29 34 39 45 46 43 39 36
324 324 325 324 325 325 326 328 328 329 329 328 329 330 333 335 336 337 337 336 335 333 332 331 331 331 331 333 334 335 335 335 336 337 337 338 339 341 342 343 342 341 342 342 343 347 353 2 17 26 20 18 23 28 32 31 33 32 28 25 27 28 30 35 46 51 49 43 39
324 324 324 324 324 324 326 327 327 328 328 328 328 330 332 333 335 336 337 336 335 334 333 332 332 331 332 333 334 334 334 334 336 337 337 338 339 341 342 343 343 343 343 344 347 352 359 8 15 14 9 10 17 24 29 32 34 34 30 26 25 25 27 34 45 52 53 48 43
324 324 323 323 323 324 325 326 327 327 327 327 328 329 330 331 333 334 336 337 336 334 333 332 332 332 332 332 332 332 332 333 336 336 337 339 340 341 342 344 344 345 345 346 350 356 2 8 11 7 2 3 9 16 23 28 32 33 30 25 23 23 27 35 44 50 51 50 47
323 323 323 323 323 323 324 326 326 327 327 327 327 328 329 330 331 333 335 337 336 334 332 331 331 331 331 331 331 330 331 333 336 337 337 339 341 342 344 345 345 346 347 348 350 356 2 8 11 9 4 3 5 10 17 23 27 30 29 26 23 24 29 36 42 46 48 48 47
323 323 323 323 322 323 324 325 326 326 326 326 327 327 328 329 330 331 333 335 335 334 332 330 330 330 330 330 331 330 331 334 336 337 338 339 341 344 346 347 347 348 349 350 352 356 2 8 12 14 9 5 5 9 14 19 23 26 28 27 27 28 31 36 40 44 46 46 46
322 322 322 323 323 323 324 324 325 325 326 326 326 327 327 327 328 329 331 333 334 334 332 330 329 329 330 331 331 331 332 335 337 338 339 340 343 346 348 349 350 351 352 352 354 357 2 8 12 17 16 9 8 10 13 16 21 23 26 26 27 29 32 35 40 44 47 47 46
322 322 323 323 323 324 324 324 324 325 325 326 326 326 326 326 327 328 330 331 333 333 333 331 330 330 331 332 333 332 333 336 338 339 340 342 345 348 351 352 353 353 354 354 356 358 2 8 14 20 24 13 13 14 16 17 19 22 23 25 25 26 29 34 41 47 50 51 49